When you browse on this site, cookies collect data to enhance your experience and personalize the content and advertising you see.
Visit our Privacy Policy to learn more. By continuing to use the site, you agree to this use of cookies and data.
  • In Hungary
  • List of Countries
  • For 7 days
  • Water Temperature
  • Weather Map
  • News
  • Weather Widgets
  • user-avatar
    Login

    Hourly Weather Uzkovo

    Today, 23 October, Wednesday

    Time Temperature Precipitation Wind Pressure Humidity
    00:00 +6°C° 0 mm 2 mps 751 mmHg 92%
    01:00 +7°C° 0 mm 3 mps 750 mmHg 91%
    02:00 +7°C° 0 mm 4 mps 750 mmHg 90%
    03:00 +7°C° 0 mm 4 mps 750 mmHg 88%
    04:00 +7°C° 0 mm 4 mps 749 mmHg 89%
    05:00 +8°C° 0 mm 5 mps 749 mmHg 91%
    06:00 +8°C° 0 mm 5 mps 748 mmHg 92%
    07:00 +9°C° 0 mm 5 mps 748 mmHg 92%
    08:00 +10°C° 0 mm 5 mps 747 mmHg 92%
    09:00 +12°C° 0 mm 5 mps 747 mmHg 93%
    10:00 +12°C° 1 mm 5 mps 747 mmHg 93%
    11:00 +12°C° 1 mm 4 mps 747 mmHg 93%
    12:00 +12°C° 1 mm 4 mps 747 mmHg 93%
    13:00 +12°C° 0.2 mm 4 mps 747 mmHg 92%
    14:00 +13°C° 0.2 mm 4 mps 747 mmHg 91%
    15:00 +13°C° 0 mm 4 mps 747 mmHg 90%
    16:00 +12°C° 0.1 mm 4 mps 747 mmHg 86%
    17:00 +12°C° 0.1 mm 4 mps 748 mmHg 82%
    18:00 +11°C° 0.1 mm 3 mps 748 mmHg 79%
    19:00 +11°C° 0 mm 3 mps 748 mmHg 80%
    20:00 +10°C° 0 mm 3 mps 748 mmHg 81%
    21:00 +10°C° 0 mm 3 mps 749 mmHg 82%
    22:00 +10°C° 0 mm 3 mps 749 mmHg 83%
    23:00 +10°C° 0 mm 3 mps 749 mmHg 84%

    Tomorrow, 24 October, Thursday

    Time Temperature Precipitation Wind Pressure Humidity
    00:00 +10°C° 0 mm 2 mps 749 mmHg 85%
    01:00 +9°C° 0 mm 2 mps 749 mmHg 86%
    02:00 +9°C° 0 mm 2 mps 749 mmHg 87%
    03:00 +9°C° 0 mm 2 mps 750 mmHg 88%
    04:00 +9°C° 0 mm 2 mps 750 mmHg 89%
    05:00 +9°C° 0 mm 2 mps 750 mmHg 90%
    06:00 +8°C° 0 mm 2 mps 750 mmHg 90%
    07:00 +9°C° 0 mm 2 mps 750 mmHg 89%
    08:00 +10°C° 0 mm 1 mps 751 mmHg 87%
    09:00 +10°C° 0 mm 1 mps 751 mmHg 86%
    10:00 +11°C° 0 mm 1 mps 751 mmHg 81%
    11:00 +12°C° 0 mm 1 mps 751 mmHg 77%
    12:00 +13°C° 0 mm 1 mps 751 mmHg 72%
    13:00 +13°C° 0 mm 1 mps 751 mmHg 73%
    14:00 +13°C° 0 mm 1 mps 751 mmHg 73%
    15:00 +13°C° 0 mm 1 mps 751 mmHg 74%
    16:00 +12°C° 0 mm 1 mps 751 mmHg 77%
    17:00 +11°C° 0 mm 1 mps 751 mmHg 80%
    18:00 +10°C° 0 mm 1 mps 751 mmHg 83%
    19:00 +10°C° 0 mm 1 mps 751 mmHg 82%
    20:00 +11°C° 0 mm 1 mps 751 mmHg 81%
    21:00 +11°C° 0 mm 1 mps 751 mmHg 80%
    22:00 +10°C° 0 mm 1 mps 751 mmHg 82%
    23:00 +10°C° 0 mm 1 mps 751 mmHg 84%

    Day after tomorrow, 25 October, Friday

    Time Temperature Precipitation Wind Pressure Humidity
    00:00 +10°C° 0 mm 1 mps 751 mmHg 86%
    01:00 +9°C° 0 mm 1 mps 751 mmHg 87%
    02:00 +9°C° 0 mm 1 mps 751 mmHg 88%
    03:00 +9°C° 0 mm 1 mps 752 mmHg 89%
    04:00 +9°C° 0 mm 1 mps 752 mmHg 90%
    05:00 +9°C° 0 mm 1 mps 752 mmHg 90%
    06:00 +8°C° 0 mm 1 mps 752 mmHg 91%
    07:00 +9°C° 0 mm 1 mps 752 mmHg 90%
    08:00 +9°C° 0 mm 1 mps 752 mmHg 90%
    09:00 +9°C° 0 mm 1 mps 752 mmHg 89%
    10:00 +10°C° 0 mm 1 mps 752 mmHg 85%
    11:00 +11°C° 0 mm 1 mps 752 mmHg 81%
    12:00 +12°C° 0 mm 1 mps 752 mmHg 77%
    13:00 +12°C° 0 mm 1 mps 752 mmHg 76%
    14:00 +13°C° 0 mm 1 mps 752 mmHg 76%
    15:00 +13°C° 0 mm 1 mps 752 mmHg 75%
    16:00 +12°C° 0 mm 1 mps 752 mmHg 78%
    17:00 +11°C° 0 mm 1 mps 752 mmHg 81%
    18:00 +10°C° 0 mm 1 mps 752 mmHg 84%
    19:00 +10°C° 0 mm 1 mps 752 mmHg 86%
    20:00 +10°C° 0 mm 1 mps 752 mmHg 87%
    21:00 +9°C° 0 mm 1 mps 752 mmHg 89%
    22:00 +8°C° 0 mm 2 mps 751 mmHg 90%
    23:00 +7°C° 0 mm 2 mps 751 mmHg 90%

    26 October, Saturday

    Time Temperature Precipitation Wind Pressure Humidity
    00:00 +7°C° 0 mm 2 mps 751 mmHg 91%
    01:00 +6°C° 0 mm 2 mps 751 mmHg 92%
    02:00 +6°C° 0 mm 2 mps 750 mmHg 92%
    03:00 +6°C° 0 mm 2 mps 750 mmHg 93%
    04:00 +5°C° 0 mm 3 mps 750 mmHg 93%
    05:00 +5°C° 0 mm 3 mps 749 mmHg 93%
    06:00 +5°C° 0 mm 3 mps 749 mmHg 93%
    07:00 +5°C° 0 mm 4 mps 749 mmHg 90%
    08:00 +6°C° 0 mm 4 mps 749 mmHg 88%
    09:00 +7°C° 0 mm 5 mps 749 mmHg 85%
    10:00 +8°C° 0 mm 5 mps 748 mmHg 81%
    11:00 +9°C° 0 mm 5 mps 748 mmHg 78%
    12:00 +11°C° 0 mm 6 mps 748 mmHg 74%
    13:00 +12°C° 0 mm 5 mps 748 mmHg 75%
    14:00 +12°C° 0 mm 5 mps 747 mmHg 77%
    15:00 +12°C° 0 mm 5 mps 747 mmHg 78%
    16:00 +10°C° 0 mm 5 mps 746 mmHg 80%
    17:00 +10°C° 0 mm 5 mps 746 mmHg 83%
    18:00 +10°C° 0 mm 5 mps 746 mmHg 85%
    19:00 +9°C° 0 mm 5 mps 745 mmHg 87%
    20:00 +8°C° 0 mm 5 mps 745 mmHg 88%
    21:00 +8°C° 0 mm 4 mps 744 mmHg 90%
    22:00 +8°C° 0 mm 5 mps 744 mmHg 89%
    23:00 +7°C° 0 mm 5 mps 743 mmHg 87%

    27 October, Sunday

    Time Temperature Precipitation Wind Pressure Humidity
    00:00 +7°C° 0 mm 6 mps 743 mmHg 86%
    01:00 +8°C° 0 mm 6 mps 742 mmHg 83%
    02:00 +8°C° 0 mm 6 mps 742 mmHg 81%
    03:00 +8°C° 0 mm 7 mps 742 mmHg 78%
    04:00 +8°C° 0.1 mm 7 mps 741 mmHg 80%
    05:00 +8°C° 0.1 mm 6 mps 741 mmHg 82%
    06:00 +8°C° 0.1 mm 6 mps 741 mmHg 84%
    07:00 +9°C° 0 mm 6 mps 741 mmHg 84%
    08:00 +9°C° 0 mm 6 mps 741 mmHg 84%
    09:00 +10°C° 0 mm 6 mps 741 mmHg 84%
    10:00 +10°C° 0 mm 6 mps 741 mmHg 83%
    11:00 +10°C° 0 mm 6 mps 740 mmHg 83%
    12:00 +11°C° 0 mm 6 mps 740 mmHg 82%
    13:00 +12°C° 0 mm 5 mps 740 mmHg 82%
    14:00 +12°C° 0 mm 5 mps 740 mmHg 82%
    15:00 +12°C° 0 mm 5 mps 740 mmHg 83%
    16:00 +12°C° 0 mm 5 mps 740 mmHg 83%
    17:00 +12°C° 0 mm 5 mps 740 mmHg 83%
    18:00 +10°C° 0 mm 6 mps 740 mmHg 83%
    19:00 +10°C° 0 mm 5 mps 740 mmHg 83%
    20:00 +10°C° 0 mm 5 mps 739 mmHg 82%
    21:00 +10°C° 0 mm 5 mps 739 mmHg 81%
    22:00 +10°C° 0 mm 5 mps 739 mmHg 82%
    23:00 +10°C° 0 mm 5 mps 739 mmHg 82%

    28 October, Monday

    Time Temperature Precipitation Wind Pressure Humidity
    00:00 +10°C° 0 mm 5 mps 739 mmHg 83%
    01:00 +10°C° 0.1 mm 5 mps 738 mmHg 83%
    02:00 +10°C° 0.1 mm 5 mps 738 mmHg 83%
    03:00 +10°C° 0.1 mm 6 mps 737 mmHg 83%
    04:00 +10°C° 0.1 mm 6 mps 737 mmHg 85%
    05:00 +10°C° 0.1 mm 6 mps 737 mmHg 87%
    06:00 +9°C° 0.1 mm 6 mps 737 mmHg 88%
    07:00 +10°C° 0 mm 6 mps 736 mmHg 87%
    08:00 +10°C° 0 mm 6 mps 736 mmHg 87%
    09:00 +10°C° 0 mm 7 mps 736 mmHg 86%
    10:00 +10°C° 0 mm 7 mps 736 mmHg 84%
    11:00 +11°C° 0 mm 7 mps 736 mmHg 82%
    12:00 +11°C° 0 mm 7 mps 736 mmHg 80%
    13:00 +11°C° 0 mm 7 mps 736 mmHg 79%
    14:00 +11°C° 0 mm 7 mps 736 mmHg 77%
    15:00 +11°C° 0 mm 8 mps 736 mmHg 75%
    16:00 +11°C° 0 mm 7 mps 736 mmHg 72%
    17:00 +10°C° 0 mm 7 mps 737 mmHg 69%
    18:00 +9°C° 0 mm 6 mps 737 mmHg 66%
    19:00 +8°C° 0 mm 6 mps 737 mmHg 66%
    20:00 +7°C° 0 mm 6 mps 738 mmHg 66%
    21:00 +5°C° 0 mm 6 mps 738 mmHg 65%
    22:00 +5°C° 0 mm 6 mps 739 mmHg 68%
    23:00 +4°C° 0 mm 6 mps 740 mmHg 70%

    29 October, Tuesday

    Time Temperature Precipitation Wind Pressure Humidity
    00:00 +4°C° 0 mm 6 mps 741 mmHg 73%
    01:00 +2°C° 0 mm 5 mps 742 mmHg 72%
    02:00 +1°C° 0 mm 5 mps 743 mmHg 71%
    03:00 0°C° 0 mm 5 mps 744 mmHg 70%
    04:00 -1°C° 0 mm 4 mps 744 mmHg 72%
    05:00 0°C° 0 mm 3 mps 745 mmHg 73%
    06:00 -1°C° 0 mm 3 mps 746 mmHg 75%
    07:00 -1°C° 0 mm 3 mps 746 mmHg 72%
    08:00 -1°C° 0 mm 3 mps 747 mmHg 68%
    09:00 0°C° 0 mm 3 mps 748 mmHg 65%
    10:00 0°C° 0 mm 3 mps 749 mmHg 63%
    11:00 0°C° 0 mm 3 mps 749 mmHg 61%
    12:00 +2°C° 0 mm 2 mps 750 mmHg 59%
    13:00 +2°C° 0 mm 2 mps 750 mmHg 59%
    14:00 +2°C° 0 mm 2 mps 750 mmHg 58%
    15:00 +2°C° 0 mm 2 mps 751 mmHg 58%
    16:00 +2°C° 0 mm 1 mps 751 mmHg 61%
    17:00 +1°C° 0 mm 1 mps 751 mmHg 65%
    18:00 0°C° 0 mm 1 mps 752 mmHg 69%
    19:00 0°C° 0 mm 1 mps 752 mmHg 69%
    20:00 0°C° 0 mm 1 mps 752 mmHg 69%
    21:00 -1°C° 0 mm 0 mps 752 mmHg 69%
    22:00 0°C° 0 mm 1 mps 753 mmHg 69%
    23:00 0°C° 0 mm 1 mps 753 mmHg 69%
    Show more